Location: Courcelles
(49.2596°N, 1.7419°E)
Time: 20:36:33
(UTC+00:00)

Cosmos 1536 Rocket - Pass Details

Date: 17 November 2025
Orbit: 599 x 625 km, 82.5° (Epoch: 10 December)

Event Time Altitude Azimuth Distance (km) Brightness Sun altitude
Rises 18:27:46 0° 346° (NNW) 2,919 7.1 -22.4°
Reaches altitude 10° 18:30:02 10° 343° (NNW) 2,005 6.3 -22.8°
Maximum altitude 18:34:23 57° 265° (W) 735 4.2 -23.5°
Drops below altitude 10° 18:38:41 10° 187° (S) 1,975 6.2 -24.2°
Sets 18:40:54 0° 183° (S) 2,871 7.0 -24.6°
